| time (UTC) | temp F | wind direction | speed knots | gust knots | rain 1hr in | rain 24hr in | rain mn in | humidity % | barometer mb |
| 20260505235535 | 36 | 356 | 5.2 | 7.8 | 0.00 | 0.00 | 0.00 | 56 | 1013.2 |
| 20260505235035 | 36 | 346 | 0.9 | 6.1 | 0.00 | 0.00 | 0.00 | 56 | 1013.3 |
| 20260505234557 | 37 | 347 | 3.5 | 7.8 | 0.00 | 0.00 | 0.00 | 56 | 1013.1 |
| 20260505234034 | 37 | 345 | 3.5 | 7.8 | 0.00 | 0.00 | 0.00 | 56 | 1013.1 |
| 20260505233535 | 37 | 32 | 4.3 | 6.1 | 0.00 | 0.00 | 0.00 | 56 | 1013.1 |
| 20260505233042 | 37 | 4 | 3.5 | 8.7 | 0.00 | 0.00 | 0.00 | 55 | 1013.2 |
| 20260505232535 | 37 | 35 | 4.3 | 8.7 | 0.00 | 0.00 | 0.00 | 55 | 1013.0 |
| 20260505232035 | 37 | 355 | 3.5 | 8.7 | 0.00 | 0.00 | 0.00 | 55 | 1013.1 |
| 20260505231546 | 37 | 321 | 4.3 | 8.7 | 0.00 | 0.00 | 0.00 | 57 | 1013.1 |
| 20260505231037 | 36 | 5 | 3.5 | 6.1 | 0.00 | 0.00 | 0.00 | 58 | 1013.1 |
| 20260505230534 | 36 | 338 | 3.5 | 6.1 | 0.00 | 0.00 | 0.00 | 59 | 1013.0 |
| 20260505230038 | 36 | 2 | 1.7 | 5.2 | 0.00 | 0.00 | 0.00 | 59 | 1013.1 |
| 20260505225535 | 36 | 51 | 0.9 | 4.3 | 0.00 | 0.00 | 0.00 | 58 | 1013.0 |
| 20260505225036 | 37 | 349 | 0.9 | 5.2 | 0.00 | 0.00 | 0.00 | 56 | 1013.1 |
| 20260505224546 | 38 | 345 | 3.5 | 7.0 | 0.00 | 0.00 | 0.00 | 55 | 1013.1 |
| 20260505224035 | 38 | 26 | 3.5 | 7.0 | 0.00 | 0.00 | 0.00 | 54 | 1013.0 |
| 20260505223535 | 38 | 345 | 4.3 | 7.0 | 0.00 | 0.00 | 0.00 | 54 | 1013.1 |
| 20260505223051 | 37 | 338 | 2.6 | 5.2 | 0.00 | 0.00 | 0.00 | 55 | 1013.1 |
| 20260505222535 | 38 | 0 | 0.0 | 4.3 | 0.00 | 0.00 | 0.00 | 56 | 1013.2 |
| 20260505222036 | 38 | 0 | 0.9 | 5.2 | 0.00 | 0.00 | 0.00 | 54 | 1013.0 |
| 20260505221549 | 38 | 345 | 2.6 | 5.2 | 0.00 | 0.00 | 0.00 | 53 | 1013.0 |
| 20260505221034 | 38 | 329 | 3.5 | 5.2 | 0.00 | 0.00 | 0.00 | 53 | 1013.1 |
| 20260505220539 | 37 | 4 | 2.6 | 4.3 | 0.00 | 0.00 | 0.00 | 55 | 1013.1 |
| 20260505220048 | 37 | 345 | 0.0 | 2.6 | 0.00 | 0.00 | 0.00 | 55 | 1013.2 |
| 20260505215535 | 38 | 0 | 0.9 | 2.6 | 0.00 | 0.00 | 0.00 | 54 | 1013.2 |
| 20260505215034 | 38 | 14 | 0.0 | 3.5 | 0.00 | 0.00 | 0.00 | 54 | 1013.1 |
| 20260505214550 | 38 | 0 | 0.0 | 3.5 | 0.00 | 0.00 | 0.00 | 53 | 1013.0 |
| 20260505214035 | 39 | 51 | 0.9 | 3.5 | 0.00 | 0.00 | 0.00 | 53 | 1013.0 |
| 20260505213535 | 39 | 44 | 0.9 | 3.5 | 0.00 | 0.00 | 0.00 | 52 | 1013.0 |
| 20260505213044 | 39 | 0 | 0.0 | 3.5 | 0.00 | 0.00 | 0.00 | 52 | 1013.0 |
| 20260505212534 | 40 | 6 | 0.0 | 4.3 | 0.00 | 0.00 | 0.00 | 51 | 1013.0 |
| 20260505212033 | 40 | 23 | 1.7 | 5.2 | 0.00 | 0.00 | 0.00 | 49 | 1013.0 |
| 20260505211539 | 40 | 333 | 3.5 | 5.2 | 0.00 | 0.00 | 0.00 | 49 | 1012.9 |
| 20260505211033 | 40 | 345 | 4.3 | 5.2 | 0.00 | 0.00 | 0.00 | 50 | 1012.9 |
| 20260505210532 | 40 | 12 | 0.9 | 3.5 | 0.00 | 0.00 | 0.00 | 50 | 1012.9 |
| 20260505210039 | 41 | 33 | 0.0 | 5.2 | 0.00 | 0.00 | 0.00 | 50 | 1012.9 |
| 20260505205533 | 41 | 0 | 0.9 | 9.6 | 0.00 | 0.00 | 0.00 | 47 | 1012.7 |
| 20260505205033 | 42 | 332 | 2.6 | 9.6 | 0.00 | 0.00 | 0.00 | 46 | 1012.6 |
| 20260505204539 | 43 | 326 | 6.1 | 9.6 | 0.00 | 0.00 | 0.00 | 44 | 1012.6 |
| 20260505204032 | 42 | 18 | 4.3 | 7.8 | 0.00 | 0.00 | 0.00 | 46 | 1012.6 |
| 20260505203532 | 41 | 345 | 0.9 | 3.5 | 0.00 | 0.00 | 0.00 | 51 | 1012.7 |
| 20260505203038 | 41 | 0 | 0.0 | 0.9 | 0.00 | 0.00 | 0.00 | 53 | 1012.5 |
| 20260505202537 | 41 | 0 | 0.0 | 5.2 | 0.00 | 0.00 | 0.00 | 53 | 1012.5 |
| 20260505202035 | 42 | 70 | 0.0 | 5.2 | 0.00 | 0.00 | 0.00 | 53 | 1012.5 |
| 20260505201538 | 41 | 9 | 0.0 | 2.6 | 0.00 | 0.00 | 0.00 | 58 | 1012.4 |
| 20260505201032 | 41 | 34 | 0.0 | 2.6 | 0.00 | 0.00 | 0.00 | 58 | 1012.3 |
| 20260505200532 | 42 | 0 | 0.0 | 2.6 | 0.00 | 0.00 | 0.00 | 63 | 1012.3 |
| 20260505200048 | 42 | 41 | 0.9 | 2.6 | 0.00 | 0.00 | 0.00 | 66 | 1012.3 |
| 20260505195535 | 42 | 293 | 0.9 | 2.6 | 0.00 | 0.00 | 0.00 | 68 | 1012.1 |
| 20260505195033 | 42 | 326 | 0.9 | 3.5 | 0.00 | 0.00 | 0.00 | 69 | 1012.1 |
| 20260505194540 | 43 | 314 | 0.0 | 3.5 | 0.00 | 0.00 | 0.00 | 68 | 1012.2 |
| 20260505194033 | 43 | 345 | 0.0 | 2.6 | 0.00 | 0.00 | 0.00 | 67 | 1012.1 |
| 20260505193532 | 43 | 0 | 0.0 | 0.9 | 0.00 | 0.00 | 0.00 | 67 | 1012.0 |
| 20260505193038 | 44 | 0 | 0.0 | 1.7 | 0.00 | 0.00 | 0.00 | 66 | 1012.0 |
| 20260505192533 | 44 | 250 | 0.0 | 1.7 | 0.00 | 0.00 | 0.00 | 66 | 1012.0 |
| 20260505192032 | 44 | 248 | 0.9 | 1.7 | 0.00 | 0.00 | 0.00 | 65 | 1011.9 |
| 20260505191540 | 45 | 176 | 0.0 | 1.7 | 0.00 | 0.00 | 0.00 | 63 | 1011.8 |
| 20260505191035 | 45 | 0 | 0.0 | 1.7 | 0.00 | 0.00 | 0.00 | 62 | 1011.8 |
| 20260505190532 | 45 | 136 | 0.0 | 2.6 | 0.00 | 0.00 | 0.00 | 62 | 1011.7 |
| 20260505190040 | 46 | 209 | 0.9 | 2.6 | 0.00 | 0.00 | 0.00 | 62 | 1011.7 |
| 20260505185532 | 46 | 148 | 0.9 | 2.6 | 0.00 | 0.00 | 0.00 | 61 | 1011.6 |
| 20260505185035 | 46 | 137 | 0.0 | 2.6 | 0.00 | 0.00 | 0.00 | 60 | 1011.7 |
| 20260505184537 | 46 | 0 | 0.9 | 2.6 | 0.00 | 0.00 | 0.00 | 60 | 1011.7 |
| 20260505184032 | 46 | 168 | 0.9 | 3.5 | 0.00 | 0.00 | 0.00 | 60 | 1011.5 |
| 20260505183532 | 46 | 145 | 0.9 | 3.5 | 0.00 | 0.00 | 0.00 | 59 | 1011.5 |
| 20260505183044 | 47 | 0 | 0.9 | 5.2 | 0.00 | 0.00 | 0.00 | 59 | 1011.6 |
| 20260505182534 | 47 | 155 | 2.6 | 5.2 | 0.00 | 0.00 | 0.00 | 59 | 1011.5 |
| 20260505182037 | 47 | 195 | 1.7 | 5.2 | 0.00 | 0.00 | 0.00 | 58 | 1011.5 |
| 20260505181545 | 47 | 174 | 1.7 | 6.1 | 0.00 | 0.00 | 0.00 | 58 | 1011.5 |
| 20260505181035 | 47 | 155 | 3.5 | 6.1 | 0.00 | 0.00 | 0.00 | 57 | 1011.4 |
| 20260505180538 | 47 | 175 | 3.5 | 7.0 | 0.00 | 0.00 | 0.00 | 56 | 1011.4 |
| 20260505180051 | 48 | 221 | 1.7 | 7.0 | 0.00 | 0.00 | 0.00 | 55 | 1011.4 |
| 20260505175534 | 48 | 205 | 3.5 | 9.6 | 0.00 | 0.00 | 0.00 | 55 | 1011.2 |
| 20260505175035 | 48 | 237 | 4.3 | 9.6 | 0.00 | 0.00 | 0.00 | 54 | 1011.4 |
| 20260505174553 | 48 | 233 | 5.2 | 9.6 | 0.00 | 0.00 | 0.00 | 54 | 1011.4 |
| 20260505174035 | 48 | 205 | 3.5 | 7.0 | 0.00 | 0.00 | 0.00 | 52 | 1011.4 |
| 20260505173535 | 47 | 269 | 2.6 | 7.0 | 0.00 | 0.00 | 0.00 | 53 | 1011.3 |
| 20260505173046 | 47 | 215 | 4.3 | 8.7 | 0.00 | 0.00 | 0.00 | 52 | 1011.3 |
| 20260505172535 | 47 | 202 | 5.2 | 11.3 | 0.00 | 0.00 | 0.00 | 50 | 1011.3 |
| 20260505172035 | 47 | 204 | 5.2 | 11.3 | 0.00 | 0.00 | 0.00 | 50 | 1011.4 |
| 20260505171545 | 48 | 229 | 7.8 | 12.2 | 0.00 | 0.00 | 0.00 | 50 | 1011.3 |
| 20260505171036 | 48 | 223 | 7.8 | 12.2 | 0.00 | 0.00 | 0.00 | 49 | 1011.1 |
| 20260505170535 | 48 | 219 | 7.8 | 12.2 | 0.00 | 0.00 | 0.00 | 47 | 1011.0 |
| 20260505170043 | 48 | 221 | 7.8 | 12.2 | 0.00 | 0.00 | 0.00 | 48 | 1011.1 |
| 20260505165534 | 48 | 166 | 7.8 | 12.2 | 0.00 | 0.00 | 0.00 | 47 | 1011.0 |
| 20260505165035 | 48 | 227 | 6.1 | 10.4 | 0.00 | 0.00 | 0.00 | 47 | 1011.0 |
| 20260505164542 | 49 | 262 | 7.0 | 13.0 | 0.00 | 0.00 | 0.00 | 46 | 1011.0 |
| 20260505164034 | 49 | 222 | 8.7 | 13.0 | 0.00 | 0.00 | 0.00 | 46 | 1011.0 |
| 20260505163535 | 48 | 217 | 7.8 | 13.0 | 0.00 | 0.00 | 0.00 | 45 | 1011.1 |
| 20260505163050 | 49 | 245 | 8.7 | 13.0 | 0.00 | 0.00 | 0.00 | 45 | 1010.9 |
| 20260505162535 | 49 | 220 | 8.7 | 13.0 | 0.00 | 0.00 | 0.00 | 44 | 1010.9 |
| 20260505162035 | 49 | 210 | 8.7 | 12.2 | 0.00 | 0.00 | 0.00 | 42 | 1010.9 |
| 20260505161546 | 49 | 231 | 7.8 | 13.0 | 0.00 | 0.00 | 0.00 | 44 | 1010.9 |
| 20260505161035 | 50 | 218 | 7.0 | 13.0 | 0.00 | 0.00 | 0.00 | 42 | 1010.8 |
| 20260505160535 | 51 | 224 | 8.7 | 13.0 | 0.00 | 0.00 | 0.00 | 42 | 1011.0 |
| 20260505153041 | 50 | 329 | 4.3 | 11.3 | 0.00 | 0.00 | 0.00 | 25 | 1010.8 |
| 20260505152533 | 51 | 347 | 5.2 | 11.3 | 0.00 | 0.00 | 0.00 | 24 | 1010.8 |
| 20260505152031 | 50 | 318 | 5.2 | 10.4 | 0.00 | 0.00 | 0.00 | 26 | 1010.9 |
| 20260505151540 | 50 | 319 | 6.1 | 10.4 | 0.00 | 0.00 | 0.00 | 25 | 1010.7 |
| 20260505151035 | 51 | 15 | 5.2 | 14.8 | 0.00 | 0.00 | 0.00 | 27 | 1010.8 |
| 20260505150533 | 50 | 273 | 4.3 | 14.8 | 0.00 | 0.00 | 0.00 | 26 | 1010.8 |
| 20260505140532 | 53 | 356 | 6.1 | 10.4 | 0.00 | 0.00 | 0.00 | 23 | 1010.9 |
| 20260505130107 | 51 | 70 | 2.6 | 13.0 | 0.00 | 0.00 | 0.00 | 24 | 1011.0 |
| 20260505125032 | 51 | 20 | 4.3 | 12.2 | 0.00 | 0.00 | 0.00 | 24 | 1011.2 |
| 20260505124551 | 51 | 244 | 5.2 | 12.2 | 0.00 | 0.00 | 0.00 | 22 | 1011.0 |
| 20260505124032 | 52 | 314 | 6.1 | 10.4 | 0.00 | 0.00 | 0.00 | 23 | 1011.1 |
| 20260505123534 | 52 | 310 | 5.2 | 16.5 | 0.00 | 0.00 | 0.00 | 25 | 1011.2 |
| 20260505123045 | 52 | 283 | 3.5 | 16.5 | 0.00 | 0.00 | 0.00 | 24 | 1011.0 |
| 20260505122532 | 51 | 243 | 6.1 | 16.5 | 0.00 | 0.00 | 0.00 | 23 | 1010.9 |
| 20260505122032 | 51 | 297 | 6.1 | 13.0 | 0.00 | 0.00 | 0.00 | 24 | 1011.0 |
| 20260505121551 | 51 | 344 | 7.0 | 11.3 | 0.00 | 0.00 | 0.00 | 22 | 1010.9 |
| 20260505121035 | 51 | 60 | 3.5 | 10.4 | 0.00 | 0.00 | 0.00 | 25 | 1010.9 |
| 20260505120535 | 52 | 243 | 4.3 | 10.4 | 0.00 | 0.00 | 0.00 | 22 | 1010.9 |
| 20260505120038 | 51 | 242 | 1.7 | 4.3 | 0.00 | 0.00 | 0.00 | 24 | 1011.0 |
| 20260505115534 | 51 | 150 | 0.9 | 12.2 | 0.00 | 0.00 | 0.00 | 25 | 1010.9 |
| 20260505115036 | 50 | 94 | 2.6 | 12.2 | 0.00 | 0.00 | 0.00 | 23 | 1010.9 |
| 20260505114547 | 51 | 340 | 7.0 | 12.2 | 0.00 | 0.00 | 0.00 | 23 | 1011.1 |
| 20260505114035 | 51 | 343 | 5.2 | 10.4 | 0.00 | 0.00 | 0.00 | 26 | 1010.9 |
| 20260505113535 | 51 | 334 | 3.5 | 9.6 | 0.00 | 0.00 | 0.00 | 23 | 1011.0 |
| 20260505113049 | 50 | 248 | 4.3 | 13.0 | 0.00 | 0.00 | 0.00 | 24 | 1011.1 |
| 20260505112538 | 50 | 253 | 7.8 | 13.0 | 0.00 | 0.00 | 0.00 | 24 | 1011.0 |
| 20260505112035 | 50 | 315 | 5.2 | 9.6 | 0.00 | 0.00 | 0.00 | 26 | 1011.2 |
| 20260505111541 | 51 | 298 | 4.3 | 9.6 | 0.00 | 0.00 | 0.00 | 26 | 1011.2 |
| 20260505111034 | 51 | 269 | 5.2 | 9.6 | 0.00 | 0.00 | 0.00 | 28 | 1011.1 |
| 20260505110535 | 51 | 283 | 3.5 | 10.4 | 0.00 | 0.00 | 0.00 | 34 | 1011.1 |
| 20260505102034 | 49 | 329 | 7.8 | 12.2 | 0.00 | 0.00 | 0.00 | 29 | 1011.4 |
| 20260505101547 | 49 | 155 | 4.3 | 10.4 | 0.00 | 0.00 | 0.00 | 30 | 1011.2 |
| 20260505101035 | 49 | 299 | 5.2 | 13.0 | 0.00 | 0.00 | 0.00 | 32 | 1011.3 |
| 20260505100535 | 48 | 332 | 7.8 | 13.0 | 0.00 | 0.00 | 0.00 | 31 | 1011.2 |
| 20260505100040 | 48 | 299 | 3.5 | 10.4 | 0.00 | 0.00 | 0.00 | 34 | 1011.2 |
| 20260505095534 | 47 | 297 | 5.2 | 11.3 | 0.00 | 0.00 | 0.00 | 31 | 1011.3 |
| 20260505095034 | 47 | 308 | 7.0 | 13.0 | 0.00 | 0.00 | 0.00 | 32 | 1011.3 |
| 20260505094540 | 48 | 334 | 8.7 | 13.0 | 0.00 | 0.00 | 0.00 | 32 | 1011.2 |
| 20260505094034 | 48 | 275 | 2.6 | 10.4 | 0.00 | 0.00 | 0.00 | 35 | 1011.2 |
| 20260505093534 | 47 | 296 | 5.2 | 8.7 | 0.00 | 0.00 | 0.00 | 33 | 1011.3 |
| 20260505093044 | 47 | 300 | 2.6 | 13.0 | 0.00 | 0.00 | 0.00 | 34 | 1011.3 |
| 20260505092534 | 47 | 30 | 7.0 | 13.0 | 0.00 | 0.00 | 0.00 | 31 | 1011.2 |
| 20260505092034 | 47 | 313 | 5.2 | 9.6 | 0.00 | 0.00 | 0.00 | 32 | 1011.3 |
| 20260505091541 | 47 | 319 | 5.2 | 11.3 | 0.00 | 0.00 | 0.00 | 38 | 1011.2 |
| 20260505091036 | 46 | 345 | 3.5 | 11.3 | 0.00 | 0.00 | 0.00 | 36 | 1011.2 |
| 20260505090534 | 46 | 21 | 7.0 | 11.3 | 0.00 | 0.00 | 0.00 | 37 | 1011.3 |
| 20260505090051 | 46 | 336 | 5.2 | 8.7 | 0.00 | 0.00 | 0.00 | 36 | 1011.1 |
| 20260505085535 | 47 | 359 | 3.5 | 7.8 | 0.00 | 0.00 | 0.00 | 39 | 1011.1 |
| 20260505085036 | 46 | 309 | 4.3 | 13.9 | 0.00 | 0.00 | 0.00 | 37 | 1011.1 |
| 20260505084548 | 45 | 354 | 2.6 | 13.9 | 0.00 | 0.00 | 0.00 | 40 | 1011.1 |
| 20260505084033 | 45 | 342 | 7.8 | 12.2 | 0.00 | 0.00 | 0.00 | 38 | 1011.2 |
| 20260505083535 | 44 | 325 | 6.1 | 12.2 | 0.00 | 0.00 | 0.00 | 38 | 1011.2 |
| 20260505083046 | 44 | 323 | 5.2 | 11.3 | 0.00 | 0.00 | 0.00 | 38 | 1011.2 |
| 20260505082535 | 45 | 20 | 2.6 | 9.6 | 0.00 | 0.00 | 0.00 | 38 | 1011.3 |
| 20260505082034 | 44 | 51 | 5.2 | 9.6 | 0.00 | 0.00 | 0.00 | 39 | 1011.2 |
| 20260505081551 | 44 | 283 | 3.5 | 13.0 | 0.00 | 0.00 | 0.00 | 39 | 1011.3 |
| 20260505081034 | 44 | 269 | 3.5 | 13.0 | 0.00 | 0.00 | 0.00 | 40 | 1011.3 |
| 20260505080538 | 43 | 326 | 7.0 | 12.2 | 0.00 | 0.00 | 0.00 | 39 | 1011.3 |
| 20260505080048 | 43 | 297 | 6.1 | 10.4 | 0.00 | 0.00 | 0.00 | 40 | 1011.2 |
| 20260505075535 | 43 | 346 | 5.2 | 10.4 | 0.00 | 0.00 | 0.00 | 39 | 1011.3 |
| 20260505075034 | 43 | 313 | 4.3 | 11.3 | 0.00 | 0.00 | 0.00 | 41 | 1011.2 |
| 20260505074541 | 43 | 295 | 7.0 | 11.3 | 0.00 | 0.00 | 0.00 | 40 | 1011.1 |
| 20260505074034 | 43 | 347 | 7.0 | 11.3 | 0.00 | 0.00 | 0.00 | 40 | 1011.2 |
| 20260505073535 | 43 | 329 | 6.1 | 11.3 | 0.00 | 0.00 | 0.00 | 41 | 1011.2 |
| 20260505073048 | 42 | 340 | 3.5 | 10.4 | 0.00 | 0.00 | 0.00 | 42 | 1011.2 |
| 20260505072534 | 42 | 295 | 4.3 | 10.4 | 0.00 | 0.00 | 0.00 | 43 | 1011.1 |
| 20260505072036 | 42 | 321 | 5.2 | 15.6 | 0.00 | 0.00 | 0.00 | 44 | 1011.0 |
| 20260505071552 | 42 | 290 | 6.1 | 16.5 | 0.00 | 0.00 | 0.00 | 44 | 1011.1 |
| 20260505071034 | 41 | 337 | 7.8 | 16.5 | 0.00 | 0.00 | 0.00 | 44 | 1011.0 |
| 20260505070536 | 41 | 349 | 5.2 | 16.5 | 0.00 | 0.00 | 0.00 | 45 | 1010.9 |
| 20260505070044 | 41 | 293 | 6.1 | 11.3 | 0.00 | 0.00 | 0.00 | 45 | 1010.9 |
| 20260505065534 | 40 | 342 | 7.8 | 11.3 | 0.00 | 0.00 | 0.00 | 45 | 1010.9 |
| 20260505065033 | 40 | 330 | 5.2 | 12.2 | 0.00 | 0.00 | 0.00 | 44 | 1010.8 |
| 20260505064542 | 40 | 323 | 5.2 | 12.2 | 0.00 | 0.00 | 0.00 | 45 | 1010.8 |
| 20260505064036 | 40 | 352 | 5.2 | 13.9 | 0.00 | 0.00 | 0.00 | 45 | 1010.9 |
| 20260505063534 | 40 | 4 | 6.1 | 13.9 | 0.00 | 0.00 | 0.00 | 45 | 1010.8 |
| 20260505063047 | 40 | 314 | 6.1 | 13.0 | 0.00 | 0.00 | 0.00 | 46 | 1011.0 |
| 20260505062534 | 40 | 339 | 4.3 | 11.3 | 0.00 | 0.00 | 0.00 | 46 | 1010.9 |
| 20260505062035 | 40 | 17 | 5.2 | 9.6 | 0.00 | 0.00 | 0.00 | 46 | 1010.8 |
| 20260505061548 | 40 | 342 | 5.2 | 11.3 | 0.00 | 0.00 | 0.00 | 47 | 1010.9 |
| 20260505061034 | 39 | 1 | 6.1 | 11.3 | 0.00 | 0.00 | 0.00 | 49 | 1010.9 |
| 20260505060536 | 39 | 312 | 3.5 | 11.3 | 0.00 | 0.00 | 0.00 | 50 | 1010.9 |
| 20260505060051 | 39 | 302 | 4.3 | 14.8 | 0.00 | 0.00 | 0.00 | 49 | 1010.8 |
| 20260505055538 | 39 | 309 | 7.0 | 14.8 | 0.00 | 0.00 | 0.00 | 48 | 1010.9 |
| 20260505055035 | 39 | 323 | 5.2 | 9.6 | 0.00 | 0.00 | 0.00 | 50 | 1010.9 |
| 20260505054555 | 39 | 328 | 3.5 | 14.8 | 0.00 | 0.00 | 0.00 | 50 | 1011.0 |
| 20260505054035 | 38 | 356 | 7.8 | 14.8 | 0.00 | 0.00 | 0.00 | 50 | 1010.9 |
| 20260505053534 | 38 | 349 | 5.2 | 13.9 | 0.00 | 0.00 | 0.00 | 50 | 1010.8 |
| 20260505053054 | 38 | 53 | 6.1 | 13.9 | 0.00 | 0.00 | 0.00 | 51 | 1010.7 |
| 20260505052534 | 38 | 1 | 6.1 | 12.2 | 0.00 | 0.00 | 0.00 | 52 | 1010.8 |
| 20260505052034 | 38 | 309 | 5.2 | 12.2 | 0.00 | 0.00 | 0.00 | 51 | 1010.7 |
| 20260505051549 | 38 | 329 | 1.7 | 7.0 | 0.00 | 0.00 | 0.00 | 53 | 1010.8 |
| 20260505051034 | 38 | 355 | 0.9 | 9.6 | 0.00 | 0.00 | 0.00 | 52 | 1010.7 |
| 20260505050536 | 37 | 356 | 3.5 | 9.6 | 0.00 | 0.00 | 0.00 | 53 | 1010.6 |
| 20260505041545 | 34 | 0 | 0.0 | 1.7 | 0.00 | 0.00 | 0.00 | 61 | 1010.5 |
| 20260505041034 | 33 | 0 | 0.0 | 1.7 | 0.00 | 0.00 | 0.00 | 62 | 1010.5 |
| 20260505040537 | 32 | 0 | 0.0 | 1.7 | 0.00 | 0.00 | 0.00 | 64 | 1010.5 |
| 20260505040044 | 32 | 0 | 0.0 | 0.0 | 0.00 | 0.00 | 0.00 | 67 | 1010.3 |
| 20260505035535 | 32 | 0 | 0.0 | 0.9 | 0.00 | 0.00 | 0.00 | 64 | 1010.4 |
| 20260505035035 | 32 | 0 | 0.0 | 0.9 | 0.00 | 0.00 | 0.00 | 63 | 1010.3 |
| 20260505034545 | 33 | 0 | 0.0 | 1.7 | 0.00 | 0.00 | 0.00 | 61 | 1010.3 |
| 20260505034034 | 34 | 0 | 0.0 | 1.7 | 0.00 | 0.00 | 0.00 | 61 | 1010.3 |
| 20260505033534 | 34 | 0 | 0.0 | 0.9 | 0.00 | 0.00 | 0.00 | 60 | 1010.2 |
| 20260505033044 | 33 | 101 | 0.0 | 4.3 | 0.00 | 0.00 | 0.00 | 60 | 1010.2 |
| 20260505032534 | 33 | 0 | 0.9 | 4.3 | 0.00 | 0.00 | 0.00 | 61 | 1010.3 |
| 20260505032033 | 33 | 355 | 0.9 | 1.7 | 0.00 | 0.00 | 0.00 | 62 | 1010.3 |
| 20260505031539 | 33 | 357 | 0.0 | 1.7 | 0.00 | 0.00 | 0.00 | 62 | 1010.3 |
| 20260505031033 | 33 | 0 | 0.0 | 1.7 | 0.00 | 0.00 | 0.00 | 63 | 1010.3 |
| 20260505030534 | 32 | 0 | 0.9 | 1.7 | 0.00 | 0.00 | 0.00 | 62 | 1010.2 |
| 20260505030047 | 32 | 0 | 0.0 | 0.9 | 0.00 | 0.00 | 0.00 | 63 | 1010.2 |
| 20260505025536 | 33 | 319 | 0.0 | 0.9 | 0.00 | 0.00 | 0.00 | 62 | 1010.3 |
| 20260505025034 | 33 | 0 | 0.0 | 0.9 | 0.00 | 0.00 | 0.00 | 62 | 1010.1 |
| 20260505024544 | 33 | 0 | 0.0 | 0.9 | 0.00 | 0.00 | 0.00 | 61 | 1010.2 |
| 20260505024034 | 33 | 330 | 0.0 | 0.9 | 0.00 | 0.00 | 0.00 | 61 | 1010.3 |
| 20260505023534 | 34 | 65 | 0.0 | 0.9 | 0.00 | 0.00 | 0.00 | 58 | 1010.2 |
| 20260505023045 | 34 | 0 | 0.0 | 0.0 | 0.00 | 0.00 | 0.00 | 57 | 1010.2 |
| 20260505022534 | 35 | 0 | 0.0 | 0.9 | 0.00 | 0.00 | 0.00 | 56 | 1010.1 |
| 20260505022036 | 35 | 0 | 0.0 | 1.7 | 0.00 | 0.00 | 0.00 | 55 | 1010.0 |
| 20260505021538 | 35 | 347 | 0.0 | 1.7 | 0.00 | 0.00 | 0.00 | 55 | 1010.2 |
| 20260505021033 | 35 | 352 | 0.0 | 1.7 | 0.00 | 0.00 | 0.00 | 55 | 1010.1 |
| 20260505020536 | 35 | 0 | 0.0 | 0.9 | 0.00 | 0.00 | 0.00 | 57 | 1010.1 |
| 20260505020045 | 35 | 0 | 0.0 | 3.5 | 0.00 | 0.00 | 0.00 | 56 | 1010.0 |
| 20260505015534 | 35 | 0 | 0.0 | 3.5 | 0.00 | 0.00 | 0.00 | 56 | 1009.9 |
| 20260505015035 | 35 | 0 | 0.9 | 3.5 | 0.00 | 0.00 | 0.00 | 56 | 1009.9 |
| 20260505014546 | 36 | 0 | 0.0 | 1.7 | 0.00 | 0.00 | 0.00 | 54 | 1009.9 |
| 20260505014034 | 36 | 0 | 0.0 | 1.7 | 0.00 | 0.00 | 0.00 | 54 | 1009.7 |
| 20260505013534 | 36 | 0 | 0.0 | 0.9 | 0.00 | 0.00 | 0.00 | 55 | 1009.7 |
| 20260505013044 | 36 | 65 | 0.0 | 2.6 | 0.00 | 0.00 | 0.00 | 54 | 1009.6 |
| 20260505012534 | 36 | 0 | 0.0 | 2.6 | 0.00 | 0.00 | 0.00 | 53 | 1009.6 |
| 20260505012036 | 37 | 90 | 0.0 | 2.6 | 0.00 | 0.00 | 0.00 | 53 | 1009.5 |
| 20260505011549 | 37 | 23 | 0.9 | 2.6 | 0.00 | 0.00 | 0.00 | 52 | 1009.4 |
| 20260505011034 | 37 | 83 | 0.0 | 2.6 | 0.00 | 0.00 | 0.00 | 52 | 1009.4 |
| 20260505010534 | 37 | 351 | 0.9 | 2.6 | 0.00 | 0.00 | 0.00 | 52 | 1009.4 |
| 20260505010042 | 37 | 86 | 0.0 | 2.6 | 0.00 | 0.00 | 0.00 | 53 | 1009.3 |
| 20260505005534 | 37 | 346 | 0.0 | 2.6 | 0.00 | 0.00 | 0.00 | 54 | 1009.4 |
| 20260505005034 | 37 | 336 | 0.0 | 4.3 | 0.00 | 0.00 | 0.00 | 53 | 1009.4 |
| 20260505004548 | 38 | 343 | 0.9 | 4.3 | 0.00 | 0.00 | 0.00 | 52 | 1009.4 |
| 20260505004035 | 38 | 89 | 0.0 | 6.1 | 0.00 | 0.00 | 0.00 | 52 | 1009.2 |
| 20260505003537 | 38 | 0 | 0.0 | 6.1 | 0.00 | 0.00 | 0.00 | 52 | 1009.3 |
| 20260505003047 | 38 | 0 | 0.9 | 6.1 | 0.00 | 0.00 | 0.00 | 51 | 1009.1 |
| 20260505002533 | 38 | 0 | 0.9 | 6.1 | 0.00 | 0.00 | 0.00 | 53 | 1009.2 |
| 20260505002033 | 38 | 101 | 0.9 | 6.1 | 0.00 | 0.00 | 0.00 | 52 | 1009.1 |
| 20260505001546 | 38 | 333 | 1.7 | 6.1 | 0.00 | 0.00 | 0.00 | 52 | 1009.1 |
| 20260505001033 | 38 | 30 | 0.9 | 3.5 | 0.00 | 0.00 | 0.00 | 53 | 1009.0 |
| 20260505000535 | 38 | 0 | 0.0 | 3.5 | 0.00 | 0.00 | 0.00 | 53 | 1009.0 |
| 20260505000047 | 38 | 0 | 0.0 | 5.2 | 0.00 | 0.00 | 0.00 | 53 | 1008.8 |